This is the latest recevied weather packets stored in our database for station/object K8WEH. If no packets are shown the sender has not sent any weather packets the latest 10 day(s).
| Time | Temp. | Humidity | Pressure | Rain* | Wind** | Luminosity | Snow |
|---|---|---|---|---|---|---|---|
| 1777842611 | 14.44° C | 37% | 1017.9 hPa | 0 mm | - | - | - |
| 1777842314 | 15° C | 37% | 1017.9 hPa | 0 mm | - | - | - |
| 1777842011 | 15° C | 37% | 1018 hPa | 0 mm | - | - | - |
| 1777841711 | 15° C | 39% | 1017.9 hPa | 0 mm | - | - | - |
| 1777841411 | 15° C | 37% | 1017.8 hPa | 0 mm | - | - | - |
| 1777841110 | 15.56° C | 38% | 1018 hPa | 0 mm | - | - | - |
| 1777840808 | 15.56° C | 37% | 1018 hPa | 0 mm | - | - | - |
| 1777840511 | 15.56° C | 38% | 1018.2 hPa | 0 mm | - | - | - |
| 1777840213 | 15.56° C | 37% | 1018.3 hPa | 0 mm | - | - | - |
| 1777839905 | 15.56° C | 40% | 1018.4 hPa | 0 mm | - | - | - |
| 1777839603 | 15.56° C | 37% | 1018.5 hPa | 0 mm | - | - | - |
| 1777839304 | 15.56° C | 39% | 1018.8 hPa | 0 mm | - | - | - |
| 1777839002 | 15.56° C | 37% | 1018.9 hPa | 0 mm | - | - | - |
| 1777838703 | 15° C | 38% | 1018.9 hPa | 0 mm | - | - | - |
| 1777838402 | 15° C | 37% | 1018.9 hPa | 0 mm | - | - | - |
| 1777838102 | 15° C | 41% | 1018.9 hPa | 0 mm | - | - | - |
| 1777837860 | 15° C | 39% | 1019 hPa | 0 mm | - | - | - |
| 1777837560 | 15° C | 37% | 1019.1 hPa | 0 mm | - | - | - |
| 1777837259 | 15° C | 37% | 1019.2 hPa | 0 mm | - | - | - |
| 1777836959 | 15° C | 37% | 1019.5 hPa | 0 mm | - | - | - |
| 1777836659 | 15.56° C | 37% | 1019.4 hPa | 0 mm | - | - | - |
| 1777836359 | 15.56° C | 36% | 1019.6 hPa | 0 mm | - | - | - |
| 1777836058 | 15.56° C | 39% | 1019.3 hPa | 0 mm | - | - | - |
| 1777835764 | 15.56° C | 35% | 1019.6 hPa | 0 mm | - | - | - |
| 1777835458 | 15.56° C | 36% | 1019.7 hPa | 0 mm | - | - | - |
* Rain latest hour (hover to see other rain measurements)
** Current wind speed in m/s (hover to see current wind gust speed)